Tracking 34171 objects as of 21-May-2026
HD Live streaming from Space Station
objects crossing your sky now

TEMPSAT 1

Track TEMPSAT 1 now!
10-day predictions
TEMPSAT 1 is classified as:


NORAD ID: 1512
Int'l Code: 1965-065E
Perigee: 1,089.0 km
Apogee: 1,191.8 km
Inclination: 90.0 °
Period: 108.0 minutes
Semi major axis: 7511 km
RCS: 0.0695 m2 (small)
Launch date: August 13, 1965
Source: United States (US)
Launch site: AIR FORCE WESTERN TEST RANGE (AFWTR)
Your satellite tracking list
Your tracking list is empty




NASA's NSSDC Master Catalog

Two Line Element Set (TLE):
1 01512U 65065E   26140.92548667  .00000028  00000-0  39938-4 0  9997
2 01512  90.0008 212.5894 0068400 326.5945 209.7625 13.33592524956414
Source of the keplerian elements: AFSPC